Vorticity
nan nan nan nan nan nan nan nan nan nan nan nan nan nan nan nan nan nan nan nan nan nan nan nan nan nan nan nan nan nan nan nan nan nan nan nan nan nan
nan 9 6 8 11 9 9 9 9 8 11 12 10 11 10 10 11 9 9 11 13 12 9 6 6 6 7 5 5 6 6 7 7 8 8 8 8 nan
nan 11 12 11 9 9 10 10 10 10 10 4 11 12 12 8 9 10 9 9 12 12 8 6 7 7 7 6 6 5 5 7 7 8 8 8 7 nan
nan 11 11 11 11 12 11 10 11 10 9 8 9 10 11 12 10 8 7 8 9 13 12 8 7 7 6 7 6 6 5 6 8 8 8 9 8 nan
nan 9 9 9 10 10 9 10 10 10 10 11 9 10 11 12 9 11 10 7 13 14 10 12 11 8 5 6 6 7 7 7 7 7 9 9 7 nan
nan 9 10 9 8 8 11 10 10 11 11 10 9 9 9 11 9 9 7 11 10 12 14 15 15 13 12 7 9 7 6 7 8 7 9 9 7 nan
nan 10 10 9 10 9 7 7 9 11 10 12 8 7 7 11 9 7 11 8 9 11 12 10 12 12 17 13 10 8 7 7 6 8 10 9 8 nan
nan 10 10 11 11 11 10 10 7 5 7 9 9 9 7 6 10 10 8 7 13 11 10 10 10 8 10 13 10 8 8 7 7 8 9 8 8 nan
nan 9 11 11 9 10 12 15 15 14 10 8 8 7 10 11 9 8 8 7 9 14 12 11 11 10 10 12 12 9 8 6 6 7 10 11 9 nan
nan 9 10 9 10 9 14 14 13 15 16 10 8 9 9 11 11 12 10 4 8 14 11 12 11 12 10 15 16 11 7 6 7 8 8 10 11 nan
nan 9 8 7 4 9 16 14 14 13 14 13 12 12 16 15 6 8 14 9 8 10 9 10 11 13 11 12 16 16 9 7 7 7 7 10 12 nan
nan 9 9 5 4 10 11 12 11 11 11 16 17 17 18 20 13 2 8 7 8 12 12 10 10 10 10 13 13 13 13 11 8 6 7 8 14 nan
nan 11 4 -1 6 10 14 12 5 6 16 17 12 12 13 12 15 14 10 10 9 12 13 8 10 8 11 13 13 13 11 10 9 8 7 8 11 nan
nan 7 -2 2 9 16 15 8 10 19 20 16 12 10 11 12 13 14 12 12 12 16 13 7 11 11 10 10 12 11 11 9 10 9 9 9 6 nan
nan 2 5 12 16 15 12 16 24 23 15 14 11 12 13 12 10 10 10 8 10 14 13 9 12 10 9 12 13 12 11 10 10 10 10 11 9 nan
nan 12 10 14 17 16 18 21 19 12 13 14 14 12 12 11 9 9 9 8 6 8 10 13 14 11 11 11 14 13 9 13 11 10 10 10 10 nan
nan 15 13 14 14 13 12 11 14 13 13 15 14 11 9 10 10 9 10 11 11 11 7 8 9 10 14 13 11 13 10 11 12 11 9 9 9 nan
nan 12 11 10 9 10 11 11 9 13 15 14 12 11 11 11 10 9 10 12 10 10 10 11 9 8 10 8 14 14 10 11 12 10 10 9 10 nan
nan 10 10 10 10 10 10 10 10 11 14 16 13 11 11 13 11 9 10 10 10 11 10 11 11 9 10 8 9 12 12 11 10 9 10 11 13 nan
nan 9 10 11 11 10 10 11 11 11 13 14 14 12 12 11 12 11 10 10 9 9 11 11 10 12 11 11 10 8 12 14 10 10 9 10 12 nan
nan 10 10 11 11 10 11 11 11 11 12 14 15 13 12 11 11 12 15 13 6 9 12 11 12 9 8 11 10 11 12 12 14 16 12 9 9 nan
nan 11 11 11 10 11 10 11 12 12 13 14 14 14 13 12 13 13 12 11 10 10 10 14 13 8 8 10 14 13 10 10 12 11 10 15 18 nan
nan nan nan nan nan nan nan nan nan nan nan nan nan nan nan nan nan nan nan nan nan nan nan nan nan nan nan nan nan nan nan nan nan nan nan nan nan nan
CAPE
30 56 44 20 1 1 1 0 1 8 3 0 0 0 0 0 0 0 0 0 0 0 0 8 0 0 0 0 0 0 0 0 0 0 0 0 0 1
6 14 29 6 0 0 1 0 0 0 1 0 0 0 2 0 0 0 0 0 0 0 5 0 0 0 0 0 0 0 0 0 0 0 0 0 1 10
2 2 0 0 0 0 0 0 0 0 0 0 0 0 2 0 1 0 0 0 0 0 3 2 1 0 0 0 0 0 0 0 0 0 0 0 1 18
1 0 2 3 4 5 1 0 0 0 0 1 0 0 0 1 0 0 0 0 0 0 0 4 2 1 0 0 0 0 0 0 0 0 0 0 2 16
0 0 0 1 0 2 3 3 0 0 0 0 0 1 0 0 0 0 0 0 0 0 0 5 5 4 1 0 0 0 0 0 0 0 0 0 4 14
0 0 0 0 1 4 8 9 3 1 0 0 0 0 0 1 0 0 0 0 0 0 0 0 2 7 9 1 0 0 0 0 0 0 1 1 4 7
0 0 0 0 0 0 1 2 7 6 0 0 0 0 0 0 0 0 0 0 0 0 0 0 0 0 0 0 0 0 0 0 0 1 2 3 4 4
0 0 0 0 0 0 0 0 1 5 2 0 0 0 0 0 0 0 1 0 0 0 0 0 0 0 0 0 0 0 0 0 0 1 1 2 3 4
0 0 0 0 0 0 0 1 0 0 2 3 0 0 0 0 0 0 0 0 0 0 0 0 0 0 0 0 0 0 0 0 0 2 2 1 1 3
6 6 6 5 4 9 11 9 2 2 6 18 14 0 0 0 0 0 0 0 0 0 0 0 0 0 0 0 0 1 2 0 0 1 1 0 0 0
1 2 8 9 14 21 23 14 3 1 0 0 5 2 0 0 0 0 0 0 0 0 0 0 0 0 0 0 0 4 3 0 0 2 2 1 0 0
0 0 0 7 16 17 16 14 5 3 0 0 0 0 1 1 4 0 0 0 0 0 0 0 0 0 0 0 0 1 4 0 0 0 0 0 0 0
2 0 1 5 8 11 6 13 16 26 19 0 0 0 0 0 0 0 0 0 0 0 0 0 0 0 0 0 0 1 0 0 0 0 0 0 0 0
3 4 3 5 5 5 3 6 9 37 11 0 0 0 0 0 0 0 0 0 0 0 0 0 0 0 0 0 0 2 1 0 0 0 0 0 0 0
4 4 4 4 6 4 5 12 17 15 0 0 0 0 0 0 0 0 0 0 0 0 0 0 0 0 0 0 0 1 1 0 0 0 0 0 0 0
8 13 11 5 4 5 10 6 3 6 1 0 0 0 0 0 0 0 0 0 1 0 1 0 0 0 0 0 0 1 0 0 0 0 0 0 0 0
13 6 5 3 5 5 5 4 7 0 0 0 0 0 0 1 0 1 1 1 1 1 1 1 0 0 0 0 0 0 0 0 0 0 0 0 0 0
3 11 9 7 8 4 9 8 5 14 0 0 0 0 0 0 1 2 2 2 2 1 1 1 1 0 0 0 0 0 0 0 0 0 0 0 0 0
8 12 12 15 17 14 10 9 8 7 3 0 0 0 1 0 2 1 2 2 3 2 3 1 2 2 0 0 0 0 0 0 0 0 0 0 0 0
7 12 13 11 15 14 12 7 5 9 4 1 0 0 0 0 1 2 2 1 1 1 1 1 1 0 0 0 0 0 0 0 0 0 0 0 0 0
9 9 8 11 15 13 9 8 5 5 7 1 0 0 1 1 2 2 2 4 2 1 1 1 0 1 0 1 0 0 0 0 0 0 0 0 0 0
6 1 3 14 10 8 10 12 14 10 2 2 1 0 1 3 4 2 3 5 1 0 1 1 3 1 0 0 0 0 1 1 0 0 0 0 0 0
4 7 1 0 1 2 3 10 9 8 4 2 1 0 1 3 3 3 3 5 2 1 1 1 2 0 0 0 0 2 0 1 0 0 0 0 0 0